Weather History for El Paso, TX

Change the Weather History Date:

Thursday, February 7, 2013

  Actual Average Record
Temperature  
Mean Temperature 56 °F 48 °F  
Max Temperature 65 °F 61 °F 79 °F (2009)
Min Temperature 46 °F 36 °F 12 °F (1899)
Degree Days  
Heating Degree Days 9 17  
Month to date heating degree days 91 121  
Since 1 July heating degree days 1580 1806  
Cooling Degree Days 0 0  
Month to date cooling degree days 0 0  
Year to date cooling degree days 0 0  
Growing Degree Days 5 (Base 50)    
Moisture  
Dew Point 25 °F    
Average Humidity 36    
Maximum Humidity 53    
Minimum Humidity 19    
Precipitation  
Precipitation 0.00 in 0.01 in 0.82 in (1944)
Month to date precipitation 0.00 0.12  
Year to date precipitation 0.30 0.52  
Snow  
Snow 0.00 in - - ()
Month to date snowfall 0.0  
Since 1 July snowfall 3.1  
Snow Depth 0.00 in    
Sea Level Pressure  
Sea Level Pressure 29.96 in    
Wind  
Wind Speed 5 mph (SE)    
Max Wind Speed 12 mph    
Max Gust Speed 15 mph    
Visibility 10 miles    
Events      
T = Trace of Precipitation, MM = Missing Value Source: NWS Daily Summary

Daily Weather History Graph

Daily Weather History Graph

Search for Another Location

Airport:

Trip Planner

Search our weather history database for the weather conditions in past years. The results will help you decide how hot, cold, wet, or windy it might be!

Date:

Astronomy

Feb. 07, 2013 Rise Set
Actual Time 6:54 AM MST 5:45 PM MST
Civil Twilight 6:28 AM MST 6:10 PM MST
Nautical Twilight 6:00 AM MST 6:39 PM MST
Astronomical Twilight 5:31 AM MST 7:08 PM MST
Moon 4:30 AM MST (2/7) 3:17 PM MST (2/7)
Length of Visible Light 11h 41m
Length of Day
10h 51m
Waning Crescent, 8% of the Moon is Illuminated
Feb 7
Waning Crescent
Feb 10
New
Feb 17
First Quarter
Feb 25
Full
Mar 4
Last Quarter

Hourly Weather History & Observations

Time (MST) Temp. Dew Point Humidity Pressure Visibility Wind Dir Wind Speed Gust Speed Precip Events Conditions
12:51 AM 52.0 °F 28.9 °F 41% 29.88 in 10.0 mi SW 8.1 mph - N/A   Clear
1:51 AM 51.1 °F 28.9 °F 43% 29.89 in 10.0 mi WSW 6.9 mph - N/A   Partly Cloudy
2:51 AM 48.9 °F 28.9 °F 46% 29.89 in 10.0 mi SW 4.6 mph - N/A   Partly Cloudy
3:51 AM 51.1 °F 30.0 °F 44% 29.91 in 10.0 mi NW 9.2 mph - N/A   Partly Cloudy
4:51 AM 52.0 °F 30.0 °F 43% 29.91 in 10.0 mi Calm Calm - N/A   Clear
5:51 AM 51.1 °F 28.9 °F 43% 29.94 in 10.0 mi NNW 10.4 mph - N/A   Clear
6:51 AM 51.1 °F 28.9 °F 43% 29.96 in 10.0 mi NNW 8.1 mph - N/A   Partly Cloudy
7:51 AM 46.9 °F 30.0 °F 52% 30.00 in 10.0 mi SSE 4.6 mph - N/A   Partly Cloudy
8:51 AM 53.1 °F 30.9 °F 43% 30.01 in 10.0 mi South 4.6 mph - N/A   Partly Cloudy
9:51 AM 57.0 °F 28.9 °F 34% 30.00 in 10.0 mi ESE 8.1 mph - N/A   Partly Cloudy
10:51 AM 60.1 °F 28.0 °F 30% 30.00 in 10.0 mi ESE 8.1 mph - N/A   Partly Cloudy
11:51 AM 62.1 °F 26.1 °F 25% 29.99 in 10.0 mi Calm Calm - N/A   Partly Cloudy
12:51 PM 63.0 °F 25.0 °F 24% 29.96 in 10.0 mi Variable 3.5 mph - N/A   Partly Cloudy
1:51 PM 64.0 °F 25.0 °F 23% 29.94 in 10.0 mi NNW 3.5 mph - N/A   Partly Cloudy
2:51 PM 63.0 °F 24.1 °F 23% 29.94 in 10.0 mi Variable 4.6 mph - N/A   Partly Cloudy
3:51 PM 64.0 °F 21.9 °F 20% 29.92 in 10.0 mi Calm Calm - N/A   Partly Cloudy
4:51 PM 64.9 °F 21.0 °F 19% 29.93 in 10.0 mi Calm Calm - N/A   Partly Cloudy
5:51 PM 61.0 °F 21.0 °F 21% 29.95 in 10.0 mi Calm Calm - N/A   Clear
6:51 PM 55.0 °F 19.9 °F 25% 29.98 in 10.0 mi ESE 6.9 mph - N/A   Clear
7:51 PM 55.0 °F 19.0 °F 24% 30.00 in 10.0 mi ESE 6.9 mph - N/A   Clear
8:51 PM 54.0 °F 19.9 °F 26% 30.00 in 10.0 mi SE 5.8 mph - N/A   Clear
9:51 PM 50.0 °F 19.0 °F 29% 30.01 in 10.0 mi East 4.6 mph - N/A   Clear
10:51 PM 46.9 °F 18.0 °F 32% 30.02 in 10.0 mi North 4.6 mph - N/A   Clear
11:51 PM 46.9 °F 19.0 °F 33% 30.01 in 10.0 mi Calm Calm - N/A   Partly Cloudy